Weather in Mayakovskoye

Russia / Kaliningrad Oblast     54°31′08″N   22°04′01″E
temp.,
°C
wind,
m/s
gust,
m/s
humid.,
%
clouds,
%
prec.,
mm/h
press.,
hPa
HPBL,
m
25 may, wed
wed2523:00+12s3676100 0.0 1012127
02:00+12sse31091100 0.0 1012243
05:00+13sse41091100 0.1 1011386
08:00+13sse4895100 0.9 1012401
11:00+16ssw369398 0.5 1011574
14:00+16w4895100 1.6 1012488
17:00+13nw51094100 0.6 1013513
20:00+11nw1195100 3.4 101228
26 may, thu
thu2623:00+9w239864 0.0 101365
02:00+8wsw349769 0.0 101276
05:00+8wsw35977 0.0 1011108
08:00+13wsw5108628 0.0 1011561
11:00+15w7116899 0.8 10101389
14:00+15w8138275 2.3 10091361
17:00+13w815833 2.1 10091564
20:00+11w815721 2.1 10101158
27 may, fri
fri2723:00+10w714740 0.0 1010918
02:00+9wsw6147913 0.0 1010772
05:00+7wsw6138413 0.0 1009530
08:00+11wsw51073100 0.0 10081069
11:00+12sw698250 0.4 1005879
14:00+12w914867 2.6 10041381
17:00+12w8156420 0.7 10041921
20:00+10w815705 0.7 10041337
28 may, sat
sat2823:00+8wsw8158658 0.1 10041036
02:00+7wsw8158250 0.2 1003994
05:00+9wsw81370100 0.0 10031306
08:00+9wsw7127499 0.3 10031322
11:00+10wsw71071100 0.1 10041341
14:00+10wsw81181100 0.4 10051349
17:00+9wsw5992100 0.4 1006615
20:00+9w389378 0.6 1006336
29 may, sun
sun2923:00+7wsw389887 0.1 1008198
02:00+6sw379940 0.1 1009171
05:00+7sw3898100 0.0 1009237
08:00+10wsw479197 0.1 1009356
11:00+14sw467697 0.5 1010882
14:00+13wsw468696 1.8 1010564
17:00+14w2380100 1.9 1010378
20:00+12wnw1286100 3.2 101113